This demonstration page uses our WeatherBlox Daily Observations layout. Learn more.

Left ArrowRight Arrow

53.62937, 11.41316

Hourly Observations for July 9, 2018

Temp ( °F °C ) Dew Point ( °F °C ) Humidity (%) Winds ( mph kmh ) Pressure ( in mb ) Visibility ( mi km ) Precip ( " mm )
6:50 am 06:50 Mostly Sunny 55 13 54 12 94 94 SW 6 9 30.12 1020 7 11 N/A
7:20 am 07:20 Mostly Cloudy 57 14 55 13 94 94 SW 6 9 30.12 1020 30 48 N/A
7:50 am 07:50 Mostly Cloudy 59 15 55 13 88 88 WSW 5 7 30.12 1020 30 48 N/A
8:20 am 08:20 Mostly Cloudy 61 16 57 14 88 88 WSW 6 9 30.12 1020 30 48 N/A
8:50 am 08:50 Mostly Cloudy 63 17 57 14 83 83 WSW 8 13 30.12 1020 30 48 N/A
9:20 am 09:20 Mostly Cloudy 63 17 57 14 83 83 WSW 9 15 30.09 1019 30 48 N/A
9:50 am 09:50 Mostly Cloudy 63 17 55 13 77 77 WSW 9 15 30.09 1019 30 48 N/A
10:20 am 10:20 Mostly Cloudy 64 18 55 13 73 73 WSW 9 15 30.09 1019 30 48 N/A
10:50 am 10:50 Partly Cloudy 68 20 54 12 60 60 WSW 12 19 30.09 1019 30 48 N/A
11:20 am 11:20 Partly Cloudy 68 20 52 11 56 56 W 9 15 30.06 1018 30 48 N/A
11:50 am 11:50 Mostly Cloudy 68 20 52 11 56 56 W 8 13 30.06 1018 30 48 N/A
12:20 pm 12:20 Partly Cloudy 68 20 52 11 56 56 WSW 12 19 30.06 1018 30 48 N/A
12:50 pm 12:50 Mostly Cloudy 66 19 50 10 56 56 VRB 9 15 30.06 1018 30 48 N/A
1:20 pm 13:20 Partly Cloudy 66 19 52 11 60 60 WSW 10 17 30.06 1018 30 48 N/A
1:50 pm 13:50 Mostly Cloudy 64 18 50 10 60 60 W 9 15 30.09 1019 30 48 N/A
2:20 pm 14:20 Mostly Cloudy 64 18 46 8 52 52 WSW 10 17 30.09 1019 30 48 N/A
2:50 pm 14:50 Mostly Cloudy 64 18 48 9 56 56 VRB 9 15 30.09 1019 30 48 N/A
3:20 pm 15:20 Mostly Cloudy 66 19 48 9 52 52 W 9 15 30.06 1018 30 48 N/A
3:50 pm 15:50 Mostly Cloudy 64 18 48 9 56 56 W 9 15 30.09 1019 30 48 N/A
4:20 pm 16:20 Mostly Cloudy 63 17 46 8 56 56 WSW 12 19 30.06 1018 30 48 N/A
4:50 pm 16:50 Mostly Cloudy 63 17 48 9 59 59 WSW 10 17 30.06 1018 30 48 N/A
5:20 pm 17:20 Mostly Cloudy 63 17 46 8 56 56 WSW 10 17 30.06 1018 30 48 N/A
5:50 pm 17:50 Mostly Cloudy 63 17 48 9 59 59 WSW 12 19 30.03 1017 30 48 N/A
6:20 pm 18:20 Mostly Cloudy 63 17 48 9 59 59 WSW 12 19 30.03 1017 30 48 N/A
6:50 pm 18:50 Mostly Cloudy 63 17 46 8 56 56 WSW 8 13 30.03 1017 30 48 N/A
7:20 pm 19:20 Mostly Cloudy 63 17 46 8 56 56 WSW 10 17 30.03 1017 30 48 N/A
7:50 pm 19:50 Mostly Cloudy 61 16 46 8 59 59 WSW 9 15 30.03 1017 30 48 N/A
8:20 pm 20:20 Mostly Cloudy 61 16 46 8 59 59 WSW 7 11 30.03 1017 30 48 N/A
8:50 pm 20:50 Mostly Cloudy 59 15 46 8 63 63 WSW 8 13 30.03 1017 30 48 N/A

Powered by AerisWeather